NOAA NWS Hourly Roundups by Site

Regional Weather Roundup for Omaha, NE

To Select Another Site Choose from List

Select Site:  

000
ASUS43 KOAX 280610
RWRNE

WEATHER ROUNDUP FOR NEBRASKA
NATIONAL WEATHER SERVICE OMAHA NE
100 AM CDT WED SEP 28 2022

NOTES: SATELLITE DATA IS BEING USED TO AUGMENT CLOUD COVER ABOVE
       12000 FEET.
       "FAIR" INDICATES FEW OR NO CLOUDS BELOW 12,000 FEET WITH NO
       SIGNIFICANT WEATHER AND/OR OBSTRUCTIONS TO VISIBILITY.


NEZ001>004-019>022-054>056-280700-
NEBRASKA PANHANDLE

CITY           SKY/WX    TMP DP  RH WIND       PRES   REMARKS
SCOTTSBLUFF    CLEAR     56  39  53 E10       30.30R
6HR MIN TEMP:  56; 6HR MAX TEMP:  76;

ALLIANCE       CLEAR     52  37  56 SE10      30.30S
6HR MIN TEMP:  50; 6HR MAX TEMP:  73;

CHADRON        CLEAR     64  34  32 S18G28    30.23F
6HR MIN TEMP:  60; 6HR MAX TEMP:  77;

GORDON         CLEAR     55  35  47 SE8       30.30S
6HR MIN TEMP:  52; 6HR MAX TEMP:  71;

KIMBALL        CLEAR     56  37  49 S15       30.35S
SIDNEY         PTCLDY    55  40  56 SE13      30.32S
6HR MIN TEMP:  52; 6HR MAX TEMP:  75;

$$

NEZ057>060-069>072-079>082-280700-
SOUTHWEST NEBRASKA

CITY           SKY/WX    TMP DP  RH WIND       PRES   REMARKS
NORTH PLATTE   CLEAR     48  39  71 E9        30.34R
6HR MIN TEMP:  48; 6HR MAX TEMP:  74;

IMPERIAL       CLEAR     54  44  69 SE9       30.33R
6HR MIN TEMP:  53; 6HR MAX TEMP:  74;

LEXINGTON      CLEAR     54  40  58 E6        30.34R
MCCOOK         CLEAR     53  43  68 E7        30.32R
6HR MIN TEMP:  53; 6HR MAX TEMP:  76;

OGALLALA       CLEAR     53  42  67 E5        30.33R HAZE
$$

NEZ005>010-023>029-035>040-094-280700-
NORTH CENTRAL NEBRASKA

CITY           SKY/WX    TMP DP  RH WIND       PRES   REMARKS
VALENTINE      CLEAR     55  37  50 SE10      30.32S
6HR MIN TEMP:  54; 6HR MAX TEMP:  71;

AINSWORTH      CLEAR     50  38  64 SE7       30.34R
BROKEN BOW     CLEAR     54  39  57 SE5       30.34R
6HR MIN TEMP:  54; 6HR MAX TEMP:  71;

O`NEILL        CLEAR     54  38  55 SE9       30.36R
ORD            CLEAR     50  40  68 E5        30.34R
6HR MIN TEMP:  45; 6HR MAX TEMP:  71;

THEDFORD       CLEAR     53  38  56 SE7       30.34S
$$

NEZ041-046>049-061>064-073>077-083>087-280700-
SOUTH CENTRAL NEBRASKA

CITY           SKY/WX    TMP DP  RH WIND       PRES   REMARKS
GRAND ISLAND   CLEAR     49  40  71 NE3       30.35R
6HR MIN TEMP:  48; 6HR MAX TEMP:  73;

AURORA         CLEAR     49  42  78 E6        30.34S
HASTINGS       CLEAR     57  41  55 E7        30.33S
6HR MIN TEMP:  56; 6HR MAX TEMP:  73;

HEBRON         CLEAR     56  44  64 CALM      30.32S HAZE
HOLDREGE       CLEAR     56  42  60 E10       30.32R HAZE
KEARNEY        CLEAR     51  42  71 E8        30.34R
YORK           CLEAR     50  41  71 E7        30.34S
$$

NEZ011>018-030>034-042>045-280700-
NORTHEAST NEBRASKA

CITY           SKY/WX    TMP DP  RH WIND       PRES   REMARKS
NORFOLK        CLEAR     51  37  58 E3        30.37R
6HR MIN TEMP:  51; 6HR MAX TEMP:  70;

ALBION         CLEAR     51  39  63 E5        30.37R
BLAIR          CLEAR     52  35  53 NE7       30.36R
COLUMBUS         N/A     50  41  71 E6        30.37R
TEKAMAH        CLEAR     44  36  73 N3        30.37R
6HR MIN TEMP:  44; 6HR MAX TEMP:  69;

WAYNE          CLEAR     45  36  71 CALM      30.39R
$$

NEZ050>053-065>068-078-088>093-280700-
SOUTHEAST NEBRASKA

CITY           SKY/WX    TMP DP  RH WIND       PRES   REMARKS
LINCOLN        CLEAR     55  42  61 E7        30.36R
6HR MIN TEMP:  54; 6HR MAX TEMP:  73;

OMAHA EPPLEY   CLEAR     56  32  40 VRB3      30.36R
6HR MIN TEMP:  56; 6HR MAX TEMP:  71;

BEATRICE       CLEAR     53  44  70 CALM      30.33R HAZE
FALLS CITY     CLEAR     53  44  71 E6        30.33R
6HR MIN TEMP:  53; 6HR MAX TEMP:  72;

NEBRASKA CITY  CLEAR     55  40  57 E7        30.35R
PLATTSMOUTH    CLEAR     52  36  53 E5        30.36R
$$

NEZ044-045-051>053-067-280700-
OMAHA AREA

CITY           SKY/WX    TMP DP  RH WIND       PRES   REMARKS
OMAHA EPPLEY   CLEAR     56  32  40 VRB3      30.36R
6HR MIN TEMP:  56; 6HR MAX TEMP:  71;

BLAIR          CLEAR     52  35  53 NE7       30.36R
MILLARD        CLEAR     57  33  39 E6        30.36R
OFFUTT AFB     CLEAR     55  31  40 E7        30.38R
PLATTSMOUTH    CLEAR     52  36  53 E5        30.36R
WAHOO          CLEAR     53  39  60 E6        30.36R
$$


 

View Past Reports for Omaha, NE.

Products Courtesy of NOAA-NWS
NWS Information Parsing Script by Ken True at Saratoga Weather - Script by SE Lincoln Weather.

This data is offered only as a general guide to local weather conditions. It should not be relied upon in lieu of officially disseminated weather information for determining possible risk to persons or property. This site, including all information contained therein, is made available as is without warranties of any kind, either express or implied. The Vicarage Weather Feed© includes links to other sites for user convenience only. The content of any linked third-party site is not controlled by The Vicarage Weather Feed©. Access to any third-party website through The Vicarage Weather Feed©, regardless of whether or not the third-party site is a linked site, is entirely at the users own risk. Externally sourced content or material is excluded from The Vicarage Weather Feed© copyright and is the copyright and property of the respective provider. Skywarn® and the Skywarn® logo are registered trademarks of the National Oceanic and Atmospheric Administration, used with permission.